Other Public Products
Issued by NWS Grand Forks, ND

Home | Current Version | Previous Version | Text Only | Print | Product List | Glossary Off
Versions: 1 2 3 4 5 6 7 8 9 10 11 12 13 14 15 16 17 18 19 20 21 22 23 24 25 26 27 28 29 30 31 32 33 34 35 36 37 38 39 40 41 42 43 44 45 46 47 48 49 50

000
FPUS83 KFGF 022110
OPUFGF
PRAIRIE TO PINES WEATHER ROUNDUP
NATIONAL WEATHER SERVICE EASTERN NORTH DAKOTA/GRAND FORKS ND
400 PM CDT MON MAY 02 2016

 **SATELLITE DATA USED TO AUGMENT SKY COVER AT AUTOMATED STATIONS**
 *****  WEATHER ACROSS EASTERN NORTH DAKOTA  *****

CITY           SKY/WX    TMP DP  RH WIND       PRES   REMARKS
GRAND FORKS    MOSUNNY   71  29  21 E7        29.96F
GRAND FORKS AF SUNNY     71  28  20 VRB3      29.96F
GRAND CITY NWS NOT AVBL
BUXTON         NOT AVBL
DEVILS LAKE    SUNNY     65  35  33 SE8       30.00F
FARGO          SUNNY     70  28  21 VRB3      29.96F
WAHPETON ARPT  MOCLDY    64  23  20 SE5       29.98F
$$

 *****  WEATHER ACROSS CENTRAL AND WESTERN NORTH DAKOTA  *****

CITY           SKY/WX    TMP DP  RH WIND       PRES   REMARKS
JAMESTOWN      SUNNY     60  42  51 S16G22    30.00F
BISMARCK       MOSUNNY   64  42  44 E5        29.98F
MINOT          SUNNY     73  33  23 NE8       29.98F
MINOT AFB      SUNNY     67  37  32 NE7       29.97F
GARRISON         N/A     68  34  28 E7        29.98S
WILLISTON      SUNNY     75  30  19 N15G28    30.00S
DICKINSON      SUNNY     68  30  24 N21G30    29.97R
HETTINGER      MOSUNNY   68  31  25 N28G36    29.96F
$$

 *****  OTHER OBSERVATIONS NORTHEAST NORTH DAKOTA  *****

CITY           SKY/WX    TMP DP  RH WIND       PRES   REMARKS
WALHALLA       FAIR      68  32  26 CALM      29.97F
LANGDON        FAIR      66  32  28 VRB5      29.99F
CAVALIER       FAIR      68  32  26 SW7       29.97F
GRAFTON        FAIR      70  30  23 VRB5      29.99S
CANDO          FAIR      66  34  30 S10       30.02S
FORT TOTTEN      N/A     65  33  30 S7        29.95S
ROLLA          FAIR      64  32  29 S7        30.01S
RUGBY          FAIR      64  37  36 N3        29.99F
 ***** THE ABOVE OBSERVATIONS ARE NON NWS ARE NOT QUALITY
        CONTROLLED AND MAY MIS-REPORT RAIN FOR SNOW...
$$

 *****  OTHER OBSERVATIONS SOUTHEAST NORTH DAKOTA *****

CITY           SKY/WX    TMP DP  RH WIND       PRES   REMARKS
COOPERSTOWN    NOT AVBL
VALLEY CITY    FAIR      63  39  42 SW15      30.02F
OAKES            N/A    N/A N/A N/A MISG        N/A
GWINNER        FAIR      64  36  34 W9        30.01F
SHEYENNE NWR     N/A     66  33  29 NW6       29.95S
BUFFALO        NOT AVBL
WYNDMERE         N/A     72  28  20 S12         N/A
 ***** THE ABOVE OBSERVATIONS ARE NON NWS ARE NOT QUALITY
       CONTROLLED AND MAY MIS-REPORT RAIN FOR SNOW...
$$

  *****  WEATHER ACROSS NORTHERN MINNESOTA  *****

CITY           SKY/WX    TMP DP  RH WIND       PRES   REMARKS
FLAG ISLAND    SUNNY     61  30  31 SE6       29.98F
WARROAD        SUNNY     63  34  34 NE9       29.99F
ROSEAU         SUNNY     70  23  17 NW3       29.98F
HALLOCK        MOSUNNY   72  21  15 W6        29.96F
THF RVR FALLS  SUNNY     68  25  19 SE5       29.99F
HALSTAD        NOT AVBL
FOSSTON        SUNNY     72  25  17 SW7       29.99S
BAUDETTE       SUNNY     68  26  20 SE7       29.97F
WASKISH        SUNNY     64  28  25 W6        30.00F
CROOKSTON      SUNNY     70  27  19 SW3       29.97F
$$
  *****  WEATHER ACROSS CENTRAL AND WEST MINNESOTA  *****

CITY           SKY/WX    TMP DP  RH WIND       PRES   REMARKS
BEMIDJI        SUNNY     67  28  22 S5        29.98F
PARK RAPIDS    SUNNY     68  27  21 S7        29.98F
WADENA         SUNNY     66  34  30 W6        29.99F
DETROIT LAKES  SUNNY     66  30  26 S7        30.00F
MOORHEAD       SUNNY     66  27  22 SW3       29.98F
FERGUS FALLS   MOSUNNY   66  30  26 SE6       29.96F
ELBOW LAKE     FAIR      67  30  25 W6        30.00F
MORRIS MN      SUNNY     70  30  23 SW6       30.00F
STAPLES        MOSUNNY   66  27  22 NW3       29.99F
WHEATON        SUNNY     70  34  26 SW8       30.01F
$$
  *****  WEATHER ELSEWHERE ACROSS MINNESOTA  *****

CITY           SKY/WX    TMP DP  RH WIND       PRES   REMARKS
DULUTH         MOSUNNY   63  33  32 SE14G22   30.01F
INTRNTL FALLS  SUNNY     66  31  27 VRB5      29.97F
ELY            PTSUNNY   63  27  25 CALM      30.00F
CLOQUET        MOSUNNY   64  25  22 SW8       30.00F
BRAINERD       PTSUNNY   65  29  25 VRB3      30.00F
HIBBING        PTSUNNY   63  31  30 NW3       30.00F
ALEXANDRIA     PTSUNNY   65  27  23 S5        30.01F
SAINT CLOUD    SUNNY     67  31  26 VRB3      30.01F
MINNEAPOLIS    MOSUNNY   64  32  30 VRB3      30.02F
$$

  *****  WEATHER ACROSS SOUTH DAKOTA  *****

CITY           SKY/WX    TMP DP  RH WIND       PRES   REMARKS
SIOUX FALLS    CLOUDY    62  36  37 VRB3      30.04F
BROOKINGS      CLOUDY    61  33  35 NE3       30.02F
WATERTOWN      CLOUDY    62  31  31 S5        30.01F
HURON          CLOUDY    65  35  33 W8        30.00F
SISSETON         N/A     66  26  22 SE3       29.98F
ABERDEEN       CLOUDY    58  45  62 NW15      30.02F
MITCHELL       MOSUNNY   63  38  39 VRB6      30.03F
PIERRE         CLOUDY    57  42  57 NW6       30.01F
MOBRIDGE       CLOUDY    59  50  72 SW10      29.95F
RAPID CITY     PTSUNNY   66  34  30 NW22G28   30.02F
$$

  *****  SOME WEATHER IN NEARBY STATES *****

CITY           SKY/WX    TMP DP  RH WIND       PRES   REMARKS
GLASGOW MT     SUNNY     75  37  25 NW16      30.05F
GREAT FALLS MT NOT AVBL
CHEYENNE WY    SUNNY     53  12  19 NW17G26   30.16F
SCOTTSBLUFF NE SUNNY     62  31  31 W14G22    30.08F
OMAHA NE       PTSUNNY   62  39  42 CALM      30.07F
DES MOINES IA  PTSUNNY   62  38  40 NE10      30.05F
DAVENPORT IA   CLOUDY    58  40  51 NE8       30.04F
CHICAGO IL     MOSUNNY   57  33  40 NE14      30.03F
EAU CLAIRE WI  PTSUNNY   64  31  28 S7        30.02F
LA CROSSE WI   MOSUNNY   68  36  30 W9        30.03F
$$

  *****  SOME NATIONAL WEATHER *****

CITY           SKY/WX    TMP DP  RH WIND       PRES   REMARKS
LA GUARDIA NY  CLOUDY    60  50  69 W7        29.89S
RALEIGH NC     TSTM      72  63  73 SW24G35   29.94R FOG
ATLANTA GA     PTSUNNY   82  61  48 SW15G23   29.93F
NEW ORLEANS LA LGT RAIN  79  72  79 SW6       29.95S
OKLAHOMA CITY  PTSUNNY   63  45  51 NW12      30.12F
ALBUQUERQUE NM MOSUNNY   59  33  37 N6        30.21F
SALT LAKE CITY MOSUNNY   67  28  23 VRB3      30.18F
LOS ANGELES CA MOSUNNY   65  53  65 W16       30.01F
BOISE ID       SUNNY     74  27  17 S12G17    30.13F
SEATTLE WA     MOSUNNY   84  47  27 W8        29.94F
$$

*** WEATHER ACROSS MANITOBA...SASKATCHEWAN AND ONTARIO ***
                ***ONTARIO***

CITY           SKY/WX    TMP DP  RH WIND       PRES   REMARKS
GERALDTON      MOSUNNY   64  28  25 VRB6      29.94F
THUNDER BAY    MOSUNNY   63  30  29 S14       29.98F
SIOUX LOOKOUT  CLOUDY    66  32  28 SW6       29.95F
TORONTO        PTSUNNY   54  41  62 S8        29.98R
BIG TROUT LK   CLOUDY    61  32  33 W20G25    29.75F
PICKLE LAKE    CLOUDY    63  28  27 W12G20    29.89F
DRYDEN         MOSUNNY   66  28  24 SW8       29.96F
KENORA         PTSUNNY   64  28  25 W14G20    29.99F
$$
                *** MANITOBA***

CITY           SKY/WX    TMP DP  RH WIND       PRES   REMARKS
BRANDON        PTSUNNY   68  37  32 S5        29.99F
DAUPHIN        SUNNY     70  36  28 NW5       29.97F
ISLAND LAKE    PTSUNNY   63  36  36 W15G21    29.80F
PILOT MOUND    NOT AVBL
THE PAS        MOSUNNY   73  36  25 W15       29.89F
THOMPSON       PTSUNNY   66  27  22 W22G29    29.79S
WINNIPEG       PTSUNNY   70  28  21 W12       29.96F
LYNN LAKE      SUNNY     61  28  29 N22G32    29.92R
GILLAM         MOSUNNY   55  32  41 NW13G22   29.67R
$$
                ***SASKATCHEWAN***

CITY           SKY/WX    TMP DP  RH WIND       PRES   REMARKS
ESTEVAN        MOSUNNY   75  28  17 VRB2      29.99F
KINDERSLEY     MOSUNNY   77  37  24 N7        30.03F
LLOYDMINSTER   MOSUNNY   79  37  22 VRB5      30.02F
PRINCE ALBERT  MOSUNNY   77  34  20 NW7G18    29.97F
REGINA         PTSUNNY   73  30  20 N10G21    30.01F
YORKTON        SUNNY     68  34  28 N8        30.00F
N. BATTLEFORD  SUNNY     79  36  21 W5        30.02F   C1F1C2F2C3F3C4F4C5F5C6F6C7F7C8F8C9F9CaFaCbFbCcFcCdFdCe!


USA.gov is the U.S. government's official web portal to all federal, state and local government web resources and services.